Topeka, KS

6:04 PM CST on February 23, 2017 (GMT -0600)
Billard Municipal

Weather History for KTOP - March, 2014

Change the Weather History Date:

Tuesday, March 11, 2014

  Actual Average Record
Temperature  
Mean Temperature 59 °F 43 °F  
Max Temperature 79 °F 55 °F 85 °F (1972)
Min Temperature 39 °F 32 °F -6 °F (1948)
Degree Days  
Heating Degree Days 6 22  
Month to date heating degree days 332 262  
Since 1 July heating degree days 4654 4229  
Cooling Degree Days 0 0  
Month to date cooling degree days 0 0  
Year to date cooling degree days 0 0  
Growing Degree Days 9 (Base 50)    
Moisture  
Dew Point 36 °F    
Average Humidity 53    
Maximum Humidity 70    
Minimum Humidity 36    
Precipitation  
Precipitation T in 0.07 in 1.63 in (1899)
Month to date precipitation 0.17 0.73  
Year to date precipitation 1.83 2.91  
Snow  
Snow T in 0.10 in 4.00 in (1899)
Month to date snowfall 2.4 0.8  
Year to date snowfall 21.3 10.2  
Since 1 July snowfall 25.6 16.7  
Snow Depth 0.00 in    
Sea Level Pressure  
Sea Level Pressure 29.61 in    
Wind  
Wind Speed 14 mph (North)    
Max Wind Speed 33 mph    
Max Gust Speed 46 mph    
Visibility 10 miles    
Events Rain    
T = Trace of Precipitation, MM = Missing Value Source: NWS Daily Summary

Daily Weather History Graph

Daily Weather History Graph

Search for Another Location

Airport or City:

Trip Planner

Search our weather history database for the weather conditions in past years. The results will help you decide how hot, cold, wet, or windy it might be!

Date:

Astronomy

Mar. 11, 2014 Rise Set
Actual Time 7:39 AM CDT 7:25 PM CDT
Civil Twilight 7:13 AM CDT 7:52 PM CDT
Nautical Twilight 6:42 AM CDT 8:23 PM CDT
Astronomical Twilight 6:11 AM CDT 8:54 PM CDT
Moon 3:04 PM CDT (3/11) 4:32 AM CDT (3/11)
Length of Visible Light 12h 38m
Length of Day
11h 45m
Waxing Gibbous, 78% of the Moon is Illuminated
Mar 11
Waxing Gibbous
Mar 16
Full
Mar 23
Last Quarter
Mar 30
New
Apr 7
First Quarter

Hourly Weather History & Observations

Time (CDT) Temp. Windchill Dew Point Humidity Pressure Visibility Wind Dir Wind Speed Gust Speed Precip Events Conditions
12:53 AM 52.0 °F - 28.0 °F 40% 29.63 in 10.0 mi SSE 4.6 mph - N/A   Clear
1:53 AM 51.1 °F - 28.0 °F 41% 29.61 in 10.0 mi Calm Calm - N/A   Clear
2:53 AM 44.1 °F 42.5 °F 30.0 °F 58% 29.61 in 10.0 mi East 3.5 mph - N/A   Clear
3:53 AM 51.1 °F - 30.0 °F 44% 29.57 in 10.0 mi South 8.1 mph - N/A   Clear
4:53 AM 51.1 °F - 28.9 °F 43% 29.54 in 10.0 mi South 8.1 mph - N/A   Clear
5:53 AM 46.9 °F - 30.0 °F 52% 29.53 in 10.0 mi SSE 5.8 mph - N/A   Clear
6:53 AM 51.1 °F - 33.1 °F 50% 29.51 in 10.0 mi South 5.8 mph - N/A   Clear
7:53 AM 50.0 °F - 36.0 °F 59% 29.50 in 10.0 mi South 4.6 mph - N/A   Clear
8:53 AM 55.0 °F - 39.9 °F 57% 29.50 in 10.0 mi Variable 5.8 mph - N/A   Clear
9:53 AM 57.9 °F - 43.0 °F 58% 29.49 in 10.0 mi South 8.1 mph - N/A   Clear
10:53 AM 64.9 °F - 46.0 °F 50% 29.48 in 10.0 mi SSW 11.5 mph 17.3 mph N/A   Clear
11:53 AM 72.0 °F - 46.0 °F 40% 29.47 in 10.0 mi SSW 8.1 mph 18.4 mph N/A   Clear
12:53 PM 73.9 °F - 46.0 °F 37% 29.45 in 10.0 mi SSW 11.5 mph - N/A   Clear
1:53 PM 75.9 °F - 46.0 °F 35% 29.44 in 10.0 mi Variable 4.6 mph - N/A   Clear
2:53 PM 75.0 °F - 46.0 °F 36% 29.42 in 10.0 mi North 13.8 mph - N/A   Partly Cloudy
3:53 PM 66.9 °F - 43.0 °F 42% 29.45 in 10.0 mi North 18.4 mph 29.9 mph N/A   Partly Cloudy
4:53 PM 55.0 °F - 37.9 °F 53% 29.54 in 10.0 mi North 27.6 mph 40.3 mph N/A   Mostly Cloudy
5:53 PM 51.1 °F - 36.0 °F 56% 29.61 in 10.0 mi North 27.6 mph 38.0 mph N/A   Mostly Cloudy
6:53 PM 48.0 °F - 36.0 °F 63% 29.67 in 10.0 mi North 23.0 mph 39.1 mph N/A   Overcast
7:25 PM 46.0 °F 37.4 °F 36.0 °F 68% 29.72 in 10.0 mi North 25.3 mph 42.6 mph N/A   Overcast
7:53 PM 44.1 °F 35.0 °F 35.1 °F 71% 29.77 in 10.0 mi North 24.2 mph 42.6 mph N/A   Overcast
8:53 PM 42.1 °F 32.8 °F 36.0 °F 79% 29.83 in 10.0 mi North 21.9 mph 29.9 mph 0.00 in Rain Light Rain
9:53 PM 39.9 °F 28.8 °F 34.0 °F 79% 29.93 in 10.0 mi North 27.6 mph 36.8 mph 0.00 in   Overcast
10:53 PM 39.9 °F 29.2 °F 30.9 °F 70% 29.99 in 10.0 mi North 25.3 mph 33.4 mph N/A   Overcast
11:53 PM 39.0 °F 29.3 °F 30.9 °F 73% 30.03 in 10.0 mi NNW 19.6 mph 27.6 mph 0.00 in   Overcast